Check out our new BloomSky Weather System.

Active alerts

Galveston, TX
  Details for Galveston, TX Coastal Flood Advisory  +2 additional alerts
Houston, TX
  Details for Houston, TX Flash Flood Watch
Fort Bend, TX
  Details for Fort Bend, TX Flash Flood Watch


Thunder radar  blitzortung!


Rain radar more information rain snow radar


Visit our other weather sites:

Template documentation
and downloads

And another site



Weather Underground History page Text

Daily Summary for January 8, 2018 Units:  Metric    English   Both
« Previous Day
Next Day »
Daily Weekly Monthly Yearly Custom
  High: Low: Average:
Temperature: -17.8 °C 6.4 °C 12.8 °C
Dew Point: -17.8 °C 5.2 °C 8.6 °C
Humidity: Humidity % 51 % 77 %
Wind Speed: 0 km/h 0 km/h 3.7 km/h
Wind Gust: 0 km/h - -
Wind:- - WNW
Pressure: 0 hPa 1011.4 hPa -
Precipitation: 0 mm    
Historical Graphs
 
 
Tabular Data for January 8, 2018
Time Temperature Dew Point Pressure Wind Wind Speed Wind Gust Humidity Rainfall Rate (Hourly)
-17.8 °C -17.8 °C 0 hPa Calm     Humidity % 0 mm
00:30 17.2 °C 16.9 °C 1011.7 hPa WSW 1.6 km/h 11.3 km/h 98 % 0 mm
00:37 17.1 °C 16.8 °C 1011.7 hPa Calm   12.9 km/h 98 % 0 mm
00:45 16.9 °C 16.6 °C 1011.7 hPa Calm   6.4 km/h 98 % 0 mm
00:52 16.7 °C 16.4 °C 1011.7 hPa SW 1.6 km/h 6.4 km/h 98 % 0 mm
01:27 16.2 °C 15.9 °C 1011.7 hPa Calm   6.4 km/h 98 % 0 mm
01:32 16.2 °C 15.9 °C 1011.7 hPa West 1.6 km/h 6.4 km/h 98 % 0 mm
01:49 16 °C 15.7 °C 1011.4 hPa Calm   8 km/h 98 % 0 mm
02:13 15.9 °C 15.6 °C 1011.7 hPa ENE 3.2 km/h 12.9 km/h 98 % 0 mm
02:27 15.7 °C 15.4 °C 1012.1 hPa WSW 3.2 km/h 17.7 km/h 98 % 0 mm
02:32 15.6 °C 15.1 °C 1012.1 hPa North 1.6 km/h 17.7 km/h 97 % 0 mm
02:42 15.5 °C 15 °C 1012.4 hPa NNW 1.6 km/h 12.9 km/h 97 % 0 mm
02:56 15.4 °C 14.9 °C 1012.8 hPa WNW 1.6 km/h 12.9 km/h 97 % 0 mm
02:58 15.4 °C 14.9 °C 1012.8 hPa West 1.6 km/h 12.9 km/h 97 % 0 mm
03:03 15.3 °C 14.7 °C 1012.8 hPa NW 1.6 km/h 12.9 km/h 96 % 0 mm
03:13 15.2 °C 14.6 °C 1013.1 hPa North 4.8 km/h 12.9 km/h 96 % 0 mm
03:19 15.1 °C 14.5 °C 1013.1 hPa NNW 4.8 km/h 12.9 km/h 96 % 0 mm
03:20 15.1 °C 14.5 °C 1013.1 hPa NNW 3.2 km/h 11.3 km/h 96 % 0 mm
03:26 15 °C 14.4 °C 1013.4 hPa NNW 8 km/h 11.3 km/h 96 % 0 mm
03:31 15.1 °C 14.5 °C 1013.4 hPa NW 3.2 km/h 11.3 km/h 96 % 0 mm
03:35 15.1 °C 14.5 °C 1013.4 hPa NNW 6.4 km/h 9.7 km/h 96 % 0 mm
03:41 15.1 °C 14.5 °C 1013.4 hPa North 3.2 km/h 9.7 km/h 96 % 0 mm
03:46 15 °C 14.2 °C 1013.4 hPa NNW 6.4 km/h 9.7 km/h 95 % 0 mm
03:47 15 °C 14.2 °C 1013.4 hPa NNW 4.8 km/h 9.7 km/h 95 % 0 mm
03:52 15 °C 14.2 °C 1013.4 hPa NNW 8 km/h 9.7 km/h 95 % 0 mm
03:57 14.9 °C 14.1 °C 1013.4 hPa NW 3.2 km/h 9.7 km/h 95 % 0 mm
04:02 14.9 °C 14.1 °C 1013.4 hPa WNW 1.6 km/h 9.7 km/h 95 % 0 mm
04:07 14.9 °C 14.1 °C 1013.4 hPa NW 4.8 km/h 16.1 km/h 95 % 0 mm
04:12 14.8 °C 14 °C 1013.4 hPa NW 3.2 km/h 16.1 km/h 95 % 0 mm
04:17 14.8 °C 14 °C 1013.4 hPa NNW 4.8 km/h 16.1 km/h 95 % 0 mm
04:22 14.8 °C 14 °C 1013.4 hPa NNW 3.2 km/h 11.3 km/h 95 % 0 mm
04:27 14.8 °C 13.8 °C 1013.4 hPa NNW 3.2 km/h 12.9 km/h 94 % 0 mm
04:32 14.7 °C 13.7 °C 1013.4 hPa WNW 6.4 km/h 12.9 km/h 94 % 0 mm
04:38 14.7 °C 13.7 °C 1013.4 hPa NW 12.9 km/h 14.5 km/h 94 % 0 mm
04:44 14.7 °C 13.7 °C 1013.8 hPa NW 8 km/h 16.1 km/h 94 % 0 mm
04:48 14.7 °C 13.7 °C 1013.8 hPa NNW 4.8 km/h 16.1 km/h 94 % 0 mm
04:54 14.7 °C 13.7 °C 1013.8 hPa NNW 6.4 km/h 16.1 km/h 94 % 0 mm
04:59 14.6 °C 13.6 °C 1013.8 hPa NNW 6.4 km/h 16.1 km/h 94 % 0 mm
05:05 14.6 °C 13.5 °C 1013.8 hPa NNW 4.8 km/h 14.5 km/h 93 % 0 mm
05:10 14.5 °C 13.4 °C 1013.8 hPa NW 11.3 km/h 16.1 km/h 93 % 0 mm
05:12 14.5 °C 13.4 °C 1014.1 hPa NNW 1.6 km/h 16.1 km/h 93 % 0 mm
05:17 14.4 °C 13.3 °C 1014.4 hPa NW 3.2 km/h 16.1 km/h 93 % 0 mm
05:22 14.4 °C 13.3 °C 1014.4 hPa NE 1.6 km/h 14.5 km/h 93 % 0 mm
05:27 14.3 °C 13.2 °C 1014.4 hPa North 1.6 km/h 14.5 km/h 93 % 0 mm
05:32 14.3 °C 13.2 °C 1014.4 hPa NW 3.2 km/h 14.5 km/h 93 % 0 mm
05:37 14.1 °C 13 °C 1014.8 hPa NW 1.6 km/h 16.1 km/h 93 % 0 mm
05:42 14 °C 12.9 °C 1014.8 hPa NNW 9.7 km/h 16.1 km/h 93 % 0 mm
05:47 13.9 °C 12.9 °C 1014.8 hPa NNW 3.2 km/h 16.1 km/h 94 % 0 mm
05:52 13.9 °C 12.9 °C 1014.8 hPa NW 4.8 km/h 14.5 km/h 94 % 0 mm
05:58 13.8 °C 12.9 °C 1014.8 hPa NNW 3.2 km/h 11.3 km/h 94 % 0 mm
06:03 13.8 °C 12.9 °C 1014.8 hPa Calm   11.3 km/h 94 % 0 mm
06:09 13.8 °C 12.9 °C 1015.1 hPa NW 8 km/h 9.7 km/h 94 % 0 mm
06:14 13.9 °C 12.8 °C 1015.1 hPa NW 9.7 km/h 14.5 km/h 93 % 0 mm
06:19 13.9 °C 12.8 °C 1015.1 hPa NW 1.6 km/h 14.5 km/h 93 % 0 mm
06:24 13.9 °C 12.8 °C 1015.1 hPa NW 4.8 km/h 14.5 km/h 93 % 0 mm
06:31 13.9 °C 12.8 °C 1015.1 hPa NW 3.2 km/h 11.3 km/h 93 % 0 mm
06:32 13.9 °C 12.8 °C 1015.5 hPa NNE 4.8 km/h 11.3 km/h 93 % 0 mm
06:37 13.9 °C 12.8 °C 1015.5 hPa NNW 3.2 km/h 11.3 km/h 93 % 0 mm
06:42 13.8 °C 12.7 °C 1015.5 hPa WNW 3.2 km/h 11.3 km/h 93 % 0 mm
06:47 13.8 °C 12.7 °C 1015.5 hPa NNW 6.4 km/h 12.9 km/h 93 % 0 mm
06:52 13.9 °C 12.6 °C 1015.5 hPa NNW 6.4 km/h 17.7 km/h 92 % 0 mm
06:57 13.9 °C 12.6 °C 1015.5 hPa NW 4.8 km/h 17.7 km/h 92 % 0 mm
07:02 13.9 °C 12.5 °C 1015.5 hPa NW 11.3 km/h 17.7 km/h 91 % 0 mm
07:07 14 °C 12.4 °C 1015.8 hPa NW 12.9 km/h 24.1 km/h 90 % 0 mm
07:13 14.1 °C 12.3 °C 1015.8 hPa NW 9.7 km/h 24.1 km/h 89 % 0 mm
07:19 14.1 °C 12.3 °C 1015.8 hPa NW 6.4 km/h 24.1 km/h 89 % 0 mm
07:25 14.1 °C 12.3 °C 1015.8 hPa NNW 4.8 km/h 22.5 km/h 89 % 0 mm
07:27 14.1 °C 12.3 °C 1015.8 hPa NW 6.4 km/h 19.3 km/h 89 % 0 mm
07:32 14 °C 12.2 °C 1016.1 hPa NW 4.8 km/h 19.3 km/h 89 % 0 mm
07:37 13.9 °C 12.3 °C 1016.1 hPa NW 6.4 km/h 16.1 km/h 90 % 0 mm
07:43 13.9 °C 12.3 °C 1016.1 hPa NW 8 km/h 14.5 km/h 90 % 0 mm
07:44 13.9 °C 12.3 °C 1016.1 hPa NNW 3.2 km/h 14.5 km/h 90 % 0 mm
07:50 13.9 °C 12.3 °C 1016.5 hPa NNW 9.7 km/h 14.5 km/h 90 % 0 mm
07:56 13.9 °C 12.5 °C 1016.5 hPa WNW 4.8 km/h 16.1 km/h 91 % 0 mm
07:59 13.9 °C 12.5 °C 1016.8 hPa NNW 8 km/h 16.1 km/h 91 % 0 mm
08:05 13.9 °C 12.5 °C 1016.8 hPa NW 4.8 km/h 16.1 km/h 91 % 0 mm
08:08 13.8 °C 12.4 °C 1016.8 hPa NW 4.8 km/h 12.9 km/h 91 % 0 mm
08:13 13.8 °C 12.4 °C 1017.2 hPa NNW 4.8 km/h 12.9 km/h 91 % 0 mm
08:19 13.7 °C 11.9 °C 1017.2 hPa North 4.8 km/h 14.5 km/h 89 % 0 mm
08:26 13.7 °C 11.7 °C 1017.2 hPa North 9.7 km/h 19.3 km/h 88 % 0 mm
08:27 13.7 °C 11.7 °C 1017.2 hPa NNE 11.3 km/h 19.3 km/h 88 % 0 mm
08:29 13.6 °C 11.6 °C 1017.2 hPa NNW 8 km/h 19.3 km/h 88 % 0 mm
08:36 13.7 °C 11.6 °C 1017.2 hPa WNW 9.7 km/h 22.5 km/h 87 % 0 mm
08:41 13.8 °C 11.5 °C 1017.5 hPa NW 9.7 km/h 22.5 km/h 86 % 0 mm
08:46 13.9 °C 11.6 °C 1017.5 hPa NW 8 km/h 24.1 km/h 86 % 0 mm
08:48 13.9 °C 11.4 °C 1017.5 hPa NW 11.3 km/h 24.1 km/h 85 % 0 mm
08:54 13.8 °C 11.3 °C 1017.5 hPa WNW 4.8 km/h 24.1 km/h 85 % 0 mm
08:55 13.8 °C 11.3 °C 1017.5 hPa NW 11.3 km/h 24.1 km/h 85 % 0 mm
09:00 13.8 °C 11.3 °C 1017.8 hPa North 11.3 km/h 24.1 km/h 85 % 0 mm
09:01 13.8 °C 11.5 °C 1017.8 hPa NNE 4.8 km/h 19.3 km/h 86 % 0 mm
09:06 13.9 °C 11.4 °C 1017.8 hPa WNW 3.2 km/h 19.3 km/h 85 % 0 mm
09:12 14.1 °C 11.4 °C 1017.8 hPa NNW 4.8 km/h 19.3 km/h 84 % 0 mm
09:17 14.2 °C 11.5 °C 1017.8 hPa NNW 8 km/h 17.7 km/h 84 % 0 mm
09:22 14.1 °C 11.3 °C 1017.8 hPa NW 3.2 km/h 22.5 km/h 83 % 0 mm
09:29 14.1 °C 11.3 °C 1018.2 hPa ENE 11.3 km/h 22.5 km/h 83 % 0 mm
09:31 14.1 °C 11.1 °C 1018.2 hPa NNW 14.5 km/h 22.5 km/h 82 % 0 mm
09:36 14.3 °C 11.5 °C 1018.5 hPa WNW 8 km/h 17.7 km/h 83 % 0 mm
09:39 14.3 °C 11.1 °C 1018.5 hPa NW 6.4 km/h 17.7 km/h 81 % 0 mm
09:45 14.1 °C 10.9 °C 1018.8 hPa NW 16.1 km/h 19.3 km/h 81 % 0 mm
09:52 14.2 °C 11 °C 1018.8 hPa NW 9.7 km/h 30.6 km/h 81 % 0 mm
09:58 14.5 °C 11.3 °C 1018.8 hPa North 12.9 km/h 30.6 km/h 81 % 0 mm
10:04 14.4 °C 11 °C 1018.8 hPa North 12.9 km/h 20.9 km/h 80 % 0 mm
10:10 14.6 °C 11.2 °C 1019.2 hPa NNW 12.9 km/h 22.5 km/h 80 % 0 mm
10:11 14.6 °C 11 °C 1019.2 hPa NNW 9.7 km/h 22.5 km/h 79 % 0 mm
10:16 14.6 °C 11.2 °C 1019.2 hPa NNE 1.6 km/h 22.5 km/h 80 % 0 mm
10:21 14.6 °C 11 °C 1019.2 hPa NNE 19.3 km/h 19.3 km/h 79 % 0 mm
10:26 14.2 °C 10.4 °C 1019.2 hPa NW 17.7 km/h 25.7 km/h 78 % 0 mm
10:32 14.2 °C 10.4 °C 1018.8 hPa NNW 11.3 km/h 25.7 km/h 78 % 0 mm
10:37 14.2 °C 10.4 °C 1018.8 hPa NW 4.8 km/h 25.7 km/h 78 % 0 mm
10:39 14.2 °C 10.4 °C 1018.8 hPa NNW 8 km/h 25.7 km/h 78 % 0 mm
10:44 14.5 °C 10.7 °C 1018.8 hPa NW 4.8 km/h 25.7 km/h 78 % 0 mm
10:51 14.5 °C 10.3 °C 1018.8 hPa North 14.5 km/h 19.3 km/h 76 % 0 mm
10:59 14.5 °C 9.9 °C 1018.8 hPa NNW 6.4 km/h 24.1 km/h 74 % 0 mm
11:04 14.7 °C 10.1 °C 1018.5 hPa WNW 4.8 km/h 24.1 km/h 74 % 0 mm
11:09 15.2 °C 10.2 °C 1018.5 hPa North 11.3 km/h 24.1 km/h 72 % 0 mm
11:15 15 °C 9.6 °C 1018.2 hPa North 11.3 km/h 19.3 km/h 70 % 0 mm
11:20 15.2 °C 9.8 °C 1018.2 hPa NNE 17.7 km/h 24.1 km/h 70 % 0 mm
11:25 15.3 °C 9.9 °C 1018.2 hPa NW 9.7 km/h 24.1 km/h 70 % 0 mm
11:30 15.2 °C 10 °C 1018.2 hPa NNW 8 km/h 24.1 km/h 71 % 0 mm
11:34 15.4 °C 10.4 °C 1018.2 hPa NW 4.8 km/h 24.1 km/h 72 % 0 mm
11:36 15.5 °C 10.3 °C 1018.2 hPa NNW 8 km/h 19.3 km/h 71 % 0 mm
11:41 15.4 °C 9.5 °C 1017.8 hPa NW 9.7 km/h 22.5 km/h 68 % 0 mm
11:46 15.3 °C 9.2 °C 1017.8 hPa WNW 6.4 km/h 22.5 km/h 67 % 0 mm
11:48 15.3 °C 9.4 °C 1017.8 hPa NNW 11.3 km/h 22.5 km/h 68 % 0 mm
11:54 15.3 °C 9.2 °C 1017.8 hPa NNW 8 km/h 22.5 km/h 67 % 0 mm
11:59 15.4 °C 9.3 °C 1017.8 hPa NW 8 km/h 20.9 km/h 67 % 0 mm
12:02 15.5 °C 9.2 °C 1017.8 hPa North 6.4 km/h 20.9 km/h 66 % 0 mm
12:12 15.9 °C 9.8 °C 1017.8 hPa North 6.4 km/h 19.3 km/h 67 % 0 mm
12:17 16.3 °C 9.9 °C 1017.5 hPa NW 9.7 km/h 17.7 km/h 66 % 0 mm
12:22 16.2 °C 9.1 °C 1017.5 hPa NW 11.3 km/h 17.7 km/h 63 % 0 mm
12:27 16.2 °C 9.1 °C 1017.5 hPa NW 8 km/h 17.7 km/h 63 % 0 mm
12:32 16.6 °C 9.3 °C 1017.2 hPa NNW 9.7 km/h 17.7 km/h 62 % 0 mm
12:37 16.7 °C 8.9 °C 1017.2 hPa NW 6.4 km/h 20.9 km/h 60 % 0 mm
12:40 16.7 °C 9.1 °C 1017.2 hPa NW 6.4 km/h 20.9 km/h 61 % 0 mm
12:45 16.5 °C 8.7 °C 1016.8 hPa NW 8 km/h 20.9 km/h 60 % 0 mm
12:47 16.6 °C 9.3 °C 1016.8 hPa WNW 9.7 km/h 20.9 km/h 62 % 0 mm
12:52 16.8 °C 8.5 °C 1016.8 hPa NNW 8 km/h 19.3 km/h 58 % 0 mm
12:53 16.8 °C 8.5 °C 1016.8 hPa NW 6.4 km/h 19.3 km/h 58 % 0 mm
12:58 16.9 °C 8.8 °C 1016.8 hPa NNW 8 km/h 17.7 km/h 59 % 0 mm
13:03 16.9 °C 8.6 °C 1016.5 hPa NW 14.5 km/h 17.7 km/h 58 % 0 mm
13:08 16.7 °C 8.4 °C 1016.5 hPa NW 6.4 km/h 17.7 km/h 58 % 0 mm
13:13 16.9 °C 8.6 °C 1016.5 hPa NNW 8 km/h 17.7 km/h 58 % 0 mm
13:17 16.9 °C 8.3 °C 1016.5 hPa NNW 12.9 km/h 17.7 km/h 57 % 0 mm
13:22 17 °C 8.4 °C 1016.1 hPa NNE 11.3 km/h 20.9 km/h 57 % 0 mm
13:23 17 °C 8.4 °C 1016.1 hPa NW 9.7 km/h 20.9 km/h 57 % 0 mm
13:26 16.9 °C 8.6 °C 1016.1 hPa NNW 9.7 km/h 20.9 km/h 58 % 0 mm
13:31 16.9 °C 8.8 °C 1016.1 hPa WNW 6.4 km/h 20.9 km/h 59 % 0 mm
13:36 17.2 °C 8.9 °C 1016.1 hPa NW 4.8 km/h 16.1 km/h 58 % 0 mm
13:40 17.4 °C 8.8 °C 1016.1 hPa WNW 4.8 km/h 16.1 km/h 57 % 0 mm
13:45 17.5 °C 8.6 °C 1016.1 hPa NW 12.9 km/h 16.1 km/h 56 % 0 mm
13:49 17.6 °C 8.2 °C 1016.1 hPa WNW 6.4 km/h 16.1 km/h 54 % 0 mm
13:55 17.6 °C 8.5 °C 1016.1 hPa Calm   17.7 km/h 55 % 0 mm
14:00 17.6 °C 8.7 °C 1016.1 hPa NW 6.4 km/h 20.9 km/h 56 % 0 mm
14:05 17.7 °C 8.5 °C 1016.1 hPa North 9.7 km/h 20.9 km/h 55 % 0 mm
14:10 17.8 °C 8.4 °C 1016.1 hPa NW 3.2 km/h 20.9 km/h 54 % 0 mm
14:16 18 °C 8.6 °C 1016.1 hPa NW 12.9 km/h 19.3 km/h 54 % 0 mm
14:22 17.9 °C 8.5 °C 1016.1 hPa North 12.9 km/h 22.5 km/h 54 % 0 mm
14:27 17.9 °C 8.2 °C 1016.1 hPa NW 4.8 km/h 22.5 km/h 53 % 0 mm
14:32 18.1 °C 8.4 °C 1016.1 hPa NNW 17.7 km/h 22.5 km/h 53 % 0 mm
14:38 17.9 °C 7.9 °C 1016.1 hPa NNW 4.8 km/h 20.9 km/h 52 % 0 mm
14:47 18.2 °C 8.5 °C 1016.5 hPa NW 12.9 km/h 20.9 km/h 53 % 0 mm
15:01 18.1 °C 8.1 °C 1016.5 hPa NNW 4.8 km/h 22.5 km/h 52 % 0 mm
15:09 18.2 °C 7.9 °C 1016.5 hPa NW 3.2 km/h 22.5 km/h 51 % 0 mm
15:14 18.1 °C 8.1 °C 1016.5 hPa NW 6.4 km/h 22.5 km/h 52 % 0 mm
15:22 18.1 °C 8.1 °C 1016.5 hPa NNW 8 km/h 22.5 km/h 52 % 0 mm
15:27 18.1 °C 8.1 °C 1016.5 hPa NNE 19.3 km/h 22.5 km/h 52 % 0 mm
15:33 18 °C 8 °C 1016.5 hPa NNW 14.5 km/h 22.5 km/h 52 % 0 mm
15:38 18 °C 7.7 °C 1016.8 hPa NW 11.3 km/h 25.7 km/h 51 % 0 mm
15:43 17.9 °C 7.6 °C 1016.8 hPa NNW 12.9 km/h 25.7 km/h 51 % 0 mm
15:46 17.9 °C 7.9 °C 1016.8 hPa North 8 km/h 25.7 km/h 52 % 0 mm
15:51 17.8 °C 7.8 °C 1016.8 hPa NNW 4.8 km/h 24.1 km/h 52 % 0 mm
15:53 17.9 °C 7.9 °C 1016.8 hPa NW 9.7 km/h 24.1 km/h 52 % 0 mm
16:00 17.9 °C 8.2 °C 1016.8 hPa NW 4.8 km/h 22.5 km/h 53 % 0 mm
16:09 17.9 °C 7.9 °C 1016.8 hPa NNW 9.7 km/h 22.5 km/h 52 % 0 mm
16:14 17.7 °C 7.7 °C 1017.2 hPa WNW 14.5 km/h 20.9 km/h 52 % 0 mm
16:19 17.6 °C 7.9 °C 1017.2 hPa North 8 km/h 20.9 km/h 53 % 0 mm
16:21 17.6 °C 8.2 °C 1017.2 hPa NNW 8 km/h 20.9 km/h 54 % 0 mm
16:26 17.7 °C 8.3 °C 1017.2 hPa WNW 3.2 km/h 19.3 km/h 54 % 0 mm
16:32 17.7 °C 8 °C 1017.2 hPa NNW 8 km/h 14.5 km/h 53 % 0 mm
16:37 17.4 °C 7.7 °C 1017.2 hPa NNE 6.4 km/h 24.1 km/h 53 % 0 mm
16:42 17.3 °C 7.9 °C 1017.2 hPa WNW 4.8 km/h 24.1 km/h 54 % 0 mm
16:43 17.3 °C 7.9 °C 1017.2 hPa NNW 8 km/h 24.1 km/h 54 % 0 mm
16:54 17.2 °C 8.1 °C 1017.2 hPa NW 6.4 km/h 16.1 km/h 55 % 0 mm
16:55 17.2 °C 8.1 °C 1017.2 hPa NW 6.4 km/h 16.1 km/h 55 % 0 mm
16:56 17.2 °C 8.1 °C 1017.2 hPa North 6.4 km/h 12.9 km/h 55 % 0 mm
16:57 17.1 °C 8 °C 1017.2 hPa NW 8 km/h 12.9 km/h 55 % 0 mm
16:58 17.1 °C 8 °C 1017.2 hPa NW 4.8 km/h 12.9 km/h 55 % 0 mm
16:59 17.1 °C 8 °C 1017.2 hPa NNW 9.7 km/h 12.9 km/h 55 % 0 mm
17:00 17.1 °C 8 °C 1017.2 hPa North 11.3 km/h 12.9 km/h 55 % 0 mm
17:01 17 °C 7.9 °C 1017.2 hPa NNW 16.1 km/h 16.1 km/h 55 % 0 mm
17:04 16.9 °C 8.1 °C 1017.5 hPa NW 9.7 km/h 16.1 km/h 56 % 0 mm
17:07 16.8 °C 8 °C 1017.5 hPa NNW 3.2 km/h 19.3 km/h 56 % 0 mm
17:08 16.8 °C 8 °C 1017.5 hPa NNW 3.2 km/h 19.3 km/h 56 % 0 mm
17:09 16.8 °C 8 °C 1017.5 hPa NW 4.8 km/h 19.3 km/h 56 % 0 mm
17:11 16.7 °C 8.1 °C 1017.5 hPa NNW 3.2 km/h 19.3 km/h 57 % 0 mm
17:14 16.7 °C 8.1 °C 1017.5 hPa NW 3.2 km/h 19.3 km/h 57 % 0 mm
17:16 16.6 °C 8 °C 1017.8 hPa NW 4.8 km/h 19.3 km/h 57 % 0 mm
17:17 16.6 °C 8 °C 1017.8 hPa NNW 3.2 km/h 19.3 km/h 57 % 0 mm
17:18 16.5 °C 8 °C 1017.5 hPa NNW 3.2 km/h 19.3 km/h 57 % 0 mm
17:19 16.5 °C 8 °C 1017.5 hPa NNE 3.2 km/h 19.3 km/h 57 % 0 mm
17:22 16.4 °C 8.1 °C 1017.8 hPa WNW 4.8 km/h 11.3 km/h 58 % 0 mm
17:26 16.3 °C 7.8 °C 1017.8 hPa NW 8 km/h 19.3 km/h 57 % 0 mm
17:27 16.3 °C 8 °C 1017.8 hPa NNW 4.8 km/h 19.3 km/h 58 % 0 mm
17:31 16.2 °C 7.9 °C 1017.8 hPa NW 4.8 km/h 19.3 km/h 58 % 0 mm
17:32 16.2 °C 7.9 °C 1017.8 hPa WNW 6.4 km/h 19.3 km/h 58 % 0 mm
17:37 16.1 °C 7.8 °C 1017.8 hPa NW 8 km/h 19.3 km/h 58 % 0 mm
17:38 16.1 °C 7.8 °C 1017.8 hPa WNW 3.2 km/h 19.3 km/h 58 % 0 mm
17:45 15.9 °C 7.9 °C 1017.8 hPa NW 3.2 km/h 11.3 km/h 59 % 0 mm
17:51 15.7 °C 8 °C 1018.2 hPa NW 1.6 km/h 12.9 km/h 60 % 0 mm
17:52 15.7 °C 8 °C 1018.2 hPa WNW 3.2 km/h 12.9 km/h 60 % 0 mm
17:53 15.6 °C 7.9 °C 1018.2 hPa NW 3.2 km/h 12.9 km/h 60 % 0 mm
17:55 15.6 °C 7.9 °C 1018.2 hPa NW 6.4 km/h 12.9 km/h 60 % 0 mm
17:57 15.5 °C 7.8 °C 1018.2 hPa NW 4.8 km/h 12.9 km/h 60 % 0 mm
18:01 15.3 °C 7.8 °C 1018.5 hPa NNW 3.2 km/h 12.9 km/h 61 % 0 mm
18:03 15.3 °C 7.8 °C 1018.5 hPa North 8 km/h 12.9 km/h 61 % 0 mm
18:07 15.2 °C 8 °C 1018.5 hPa NNW 1.6 km/h 9.7 km/h 62 % 0 mm
18:08 15.2 °C 8 °C 1018.5 hPa North 3.2 km/h 9.7 km/h 62 % 0 mm
18:13 15.1 °C 7.9 °C 1018.5 hPa NW 1.6 km/h 11.3 km/h 62 % 0 mm
18:14 15.1 °C 7.9 °C 1018.5 hPa NW 4.8 km/h 11.3 km/h 62 % 0 mm
18:15 15.1 °C 7.9 °C 1018.5 hPa NNW 8 km/h 11.3 km/h 62 % 0 mm
18:16 15.1 °C 7.9 °C 1018.5 hPa NW 4.8 km/h 11.3 km/h 62 % 0 mm
18:17 15 °C 7.8 °C 1018.5 hPa NW 4.8 km/h 11.3 km/h 62 % 0 mm
18:20 14.9 °C 7.7 °C 1018.5 hPa WNW 3.2 km/h 11.3 km/h 62 % 0 mm
18:21 14.9 °C 7.9 °C 1018.5 hPa NNW 3.2 km/h 11.3 km/h 63 % 0 mm
18:22 14.9 °C 7.9 °C 1018.5 hPa NW 3.2 km/h 11.3 km/h 63 % 0 mm
18:26 14.8 °C 7.8 °C 1018.5 hPa Calm   8 km/h 63 % 0 mm
18:30 14.7 °C 7.7 °C 1018.8 hPa NW 8 km/h 8 km/h 63 % 0 mm
18:32 14.7 °C 7.7 °C 1018.8 hPa NW 6.4 km/h 9.7 km/h 63 % 0 mm
18:37 14.7 °C 7.7 °C 1018.8 hPa NW 4.8 km/h 11.3 km/h 63 % 0 mm
18:38 14.7 °C 7.7 °C 1018.8 hPa NNW 3.2 km/h 11.3 km/h 63 % 0 mm
18:39 14.7 °C 7.7 °C 1018.8 hPa WNW 6.4 km/h 11.3 km/h 63 % 0 mm
18:40 14.7 °C 7.7 °C 1018.8 hPa WNW 4.8 km/h 11.3 km/h 63 % 0 mm
18:41 14.7 °C 7.7 °C 1018.8 hPa NW 6.4 km/h 11.3 km/h 63 % 0 mm
18:42 14.7 °C 7.7 °C 1018.8 hPa NW 6.4 km/h 11.3 km/h 63 % 0 mm
18:43 14.7 °C 7.7 °C 1018.8 hPa NW 3.2 km/h 11.3 km/h 63 % 0 mm
18:45 14.6 °C 7.9 °C 1018.8 hPa NNW 3.2 km/h 11.3 km/h 64 % 0 mm
18:47 14.6 °C 7.9 °C 1018.8 hPa NW 1.6 km/h 11.3 km/h 64 % 0 mm
18:49 14.6 °C 7.9 °C 1018.8 hPa NW 6.4 km/h 11.3 km/h 64 % 0 mm
18:52 14.5 °C 7.8 °C 1018.8 hPa NW 4.8 km/h 11.3 km/h 64 % 0 mm
18:56 14.4 °C 7.7 °C 1018.8 hPa NW 6.4 km/h 11.3 km/h 64 % 0 mm
18:59 14.3 °C 7.6 °C 1018.8 hPa NW 3.2 km/h 11.3 km/h 64 % 0 mm
19:00 14.3 °C 7.6 °C 1018.8 hPa NW 3.2 km/h 11.3 km/h 64 % 0 mm
19:01 14.3 °C 7.8 °C 1018.8 hPa Calm   11.3 km/h 65 % 0 mm
19:02 14.3 °C 7.8 °C 1018.8 hPa NW 1.6 km/h 11.3 km/h 65 % 0 mm
19:05 14.2 °C 7.7 °C 1018.8 hPa NNW 3.2 km/h 11.3 km/h 65 % 0 mm
19:06 14.2 °C 7.7 °C 1018.8 hPa NW 1.6 km/h 8 km/h 65 % 0 mm
19:07 14.2 °C 7.7 °C 1018.8 hPa NW 4.8 km/h 8 km/h 65 % 0 mm
19:08 14.1 °C 7.6 °C 1018.8 hPa North 3.2 km/h 8 km/h 65 % 0 mm
19:09 14.1 °C 7.6 °C 1018.8 hPa NW 4.8 km/h 8 km/h 65 % 0 mm
19:11 14.1 °C 7.6 °C 1018.8 hPa NW 4.8 km/h 8 km/h 65 % 0 mm
19:12 14.1 °C 7.6 °C 1018.8 hPa WNW 1.6 km/h 8 km/h 65 % 0 mm
19:14 14 °C 7.7 °C 1018.8 hPa Calm   8 km/h 66 % 0 mm
19:15 14 °C 7.7 °C 1018.8 hPa North 3.2 km/h 8 km/h 66 % 0 mm
19:16 13.9 °C 7.7 °C 1018.8 hPa Calm   8 km/h 66 % 0 mm
19:17 13.9 °C 7.7 °C 1018.8 hPa NW 4.8 km/h 8 km/h 66 % 0 mm
19:18 13.9 °C 7.7 °C 1018.8 hPa WNW 1.6 km/h 8 km/h 66 % 0 mm
19:19 13.9 °C 7.7 °C 1018.8 hPa NNW 1.6 km/h 8 km/h 66 % 0 mm
19:20 13.9 °C 7.7 °C 1018.8 hPa NW 3.2 km/h 6.4 km/h 66 % 0 mm
19:21 13.9 °C 7.7 °C 1018.8 hPa NW 3.2 km/h 6.4 km/h 66 % 0 mm
19:26 13.8 °C 7.6 °C 1018.8 hPa NNW 1.6 km/h 6.4 km/h 66 % 0 mm
19:29 13.7 °C 7.5 °C 1018.8 hPa Calm   6.4 km/h 66 % 0 mm
19:30 13.7 °C 7.5 °C 1018.8 hPa NNW 1.6 km/h 6.4 km/h 66 % 0 mm
19:31 13.7 °C 7.5 °C 1019.2 hPa NW 3.2 km/h 6.4 km/h 66 % 0 mm
19:33 13.7 °C 7.7 °C 1019.2 hPa NW 4.8 km/h 6.4 km/h 67 % 0 mm
19:34 13.7 °C 7.7 °C 1018.8 hPa NNW 4.8 km/h 6.4 km/h 67 % 0 mm
19:35 13.7 °C 7.7 °C 1019.2 hPa NW 3.2 km/h 6.4 km/h 67 % 0 mm
19:40 13.6 °C 7.6 °C 1019.2 hPa Calm   6.4 km/h 67 % 0 mm
19:45 13.4 °C 7.6 °C 1019.2 hPa NW 1.6 km/h 6.4 km/h 68 % 0 mm
19:50 13.3 °C 7.5 °C 1019.2 hPa Calm   6.4 km/h 68 % 0 mm
19:51 13.2 °C 7.4 °C 1019.2 hPa Calm   3.2 km/h 68 % 0 mm
19:52 13.2 °C 7.4 °C 1019.2 hPa Calm   3.2 km/h 68 % 0 mm
19:54 13.1 °C 7.3 °C 1019.2 hPa Calm   3.2 km/h 68 % 0 mm
19:56 13.1 °C 7.5 °C 1019.2 hPa NNW 1.6 km/h 3.2 km/h 69 % 0 mm
19:59 12.9 °C 7.3 °C 1019.2 hPa Calm   3.2 km/h 69 % 0 mm
20:01 12.8 °C 7.3 °C 1019.2 hPa Calm   1.6 km/h 69 % 0 mm
20:06 12.6 °C 7.3 °C 1019.2 hPa Calm   1.6 km/h 70 % 0 mm
20:09 12.4 °C 7.1 °C 1019.2 hPa Calm   1.6 km/h 70 % 0 mm
20:10 12.4 °C 7.3 °C 1019.2 hPa Calm   1.6 km/h 71 % 0 mm
20:11 12.3 °C 7.2 °C 1019.2 hPa Calm   1.6 km/h 71 % 0 mm
20:14 12.2 °C 7.1 °C 1019.2 hPa Calm   1.6 km/h 71 % 0 mm
20:15 12.2 °C 7.1 °C 1019.2 hPa Calm   1.6 km/h 71 % 0 mm
20:18 12 °C 7.1 °C 1019.2 hPa Calm   1.6 km/h 72 % 0 mm
20:19 12 °C 7.1 °C 1019.2 hPa Calm   1.6 km/h 72 % 0 mm
20:20 11.9 °C 7 °C 1019.5 hPa Calm   1.6 km/h 72 % 0 mm
20:22 11.9 °C 7.2 °C 1019.5 hPa Calm   1.6 km/h 73 % 0 mm
20:23 11.8 °C 7.1 °C 1019.5 hPa Calm   1.6 km/h 73 % 0 mm
20:25 11.7 °C 7 °C 1019.5 hPa Calm   1.6 km/h 73 % 0 mm
20:26 11.6 °C 6.9 °C 1019.2 hPa Calm   1.6 km/h 73 % 0 mm
20:27 11.6 °C 6.9 °C 1019.2 hPa Calm   1.6 km/h 73 % 0 mm
20:28 11.6 °C 6.9 °C 1019.5 hPa Calm   1.6 km/h 73 % 0 mm
20:29 11.4 °C 6.7 °C 1019.5 hPa Calm   1.6 km/h 73 % 0 mm
20:30 11.3 °C 6.6 °C 1019.5 hPa Calm   1.6 km/h 73 % 0 mm
20:31 11.3 °C 6.6 °C 1019.5 hPa Calm   1.6 km/h 73 % 0 mm
20:32 11.2 °C 6.7 °C 1019.5 hPa Calm   1.6 km/h 74 % 0 mm
20:33 11.2 °C 6.7 °C 1019.5 hPa Calm   1.6 km/h 74 % 0 mm
20:34 11.1 °C 6.6 °C 1019.5 hPa Calm   1.6 km/h 74 % 0 mm
20:35 11.1 °C 6.8 °C 1019.5 hPa Calm   1.6 km/h 75 % 0 mm
20:36 11.1 °C 6.8 °C 1019.5 hPa Calm   1.6 km/h 75 % 0 mm
20:37 11 °C 6.9 °C 1019.5 hPa Calm   1.6 km/h 76 % 0 mm
20:38 11 °C 6.9 °C 1019.5 hPa Calm   1.6 km/h 76 % 0 mm
20:39 10.9 °C 6.8 °C 1019.5 hPa Calm   1.6 km/h 76 % 0 mm
20:41 10.9 °C 6.8 °C 1019.5 hPa Calm   1.6 km/h 76 % 0 mm
20:44 10.8 °C 6.9 °C 1019.5 hPa Calm   1.6 km/h 77 % 0 mm
20:48 10.6 °C 6.7 °C 1019.5 hPa Calm   1.6 km/h 77 % 0 mm
20:52 10.4 °C 6.5 °C 1019.5 hPa Calm   1.6 km/h 77 % 0 mm
20:53 10.3 °C 6.4 °C 1019.5 hPa Calm   1.6 km/h 77 % 0 mm
20:54 10.3 °C 6.4 °C 1019.5 hPa Calm   1.6 km/h 77 % 0 mm
20:55 10.3 °C 6.6 °C 1019.5 hPa Calm   1.6 km/h 78 % 0 mm
20:56 10.2 °C 6.5 °C 1019.5 hPa Calm   1.6 km/h 78 % 0 mm
20:57 10.2 °C 6.5 °C 1019.5 hPa Calm   1.6 km/h 78 % 0 mm
20:58 10.2 °C 6.5 °C 1019.5 hPa Calm   1.6 km/h 78 % 0 mm
20:59 10.1 °C 6.6 °C 1019.5 hPa Calm   1.6 km/h 79 % 0 mm
21:00 10.1 °C 6.6 °C 1019.5 hPa Calm   1.6 km/h 79 % 0 mm
21:01 9.9 °C 6.4 °C 1019.5 hPa Calm   1.6 km/h 79 % 0 mm
21:02 9.9 °C 6.4 °C 1019.5 hPa Calm   1.6 km/h 79 % 0 mm
21:03 9.9 °C 6.4 °C 1019.5 hPa Calm   1.6 km/h 79 % 0 mm
21:05 9.8 °C 6.5 °C 1019.9 hPa Calm   1.6 km/h 80 % 0 mm
21:06 9.8 °C 6.5 °C 1019.9 hPa Calm   1.6 km/h 80 % 0 mm
21:07 9.7 °C 6.4 °C 1019.9 hPa Calm   1.6 km/h 80 % 0 mm
21:09 9.7 °C 6.4 °C 1019.9 hPa Calm   1.6 km/h 80 % 0 mm
21:12 9.7 °C 6.8 °C 1019.9 hPa Calm   3.2 km/h 82 % 0 mm
21:13 9.8 °C 6.9 °C 1019.9 hPa Calm   3.2 km/h 82 % 0 mm
21:16 9.8 °C 6.9 °C 1019.9 hPa Calm   3.2 km/h 82 % 0 mm
21:17 9.9 °C 7 °C 1019.9 hPa Calm   3.2 km/h 82 % 0 mm
21:18 9.9 °C 7 °C 1019.9 hPa Calm   3.2 km/h 82 % 0 mm
21:21 9.9 °C 7 °C 1019.9 hPa Calm   3.2 km/h 82 % 0 mm
21:22 9.9 °C 7 °C 1019.9 hPa Calm   3.2 km/h 82 % 0 mm
21:23 9.9 °C 7 °C 1019.9 hPa Calm   3.2 km/h 82 % 0 mm
21:24 9.9 °C 7 °C 1019.9 hPa Calm   3.2 km/h 82 % 0 mm
21:25 10 °C 7.1 °C 1019.9 hPa Calm   3.2 km/h 82 % 0 mm
21:27 9.9 °C 6.8 °C 1019.9 hPa Calm   3.2 km/h 81 % 0 mm
21:28 9.9 °C 6.8 °C 1019.9 hPa Calm   3.2 km/h 81 % 0 mm
21:29 9.9 °C 6.8 °C 1019.9 hPa Calm   3.2 km/h 81 % 0 mm
21:30 9.9 °C 6.8 °C 1020.2 hPa Calm   1.6 km/h 81 % 0 mm
21:31 9.8 °C 6.7 °C 1020.2 hPa Calm   1.6 km/h 81 % 0 mm
21:32 9.8 °C 6.9 °C 1020.2 hPa Calm   1.6 km/h 82 % 0 mm
21:33 9.8 °C 6.9 °C 1020.2 hPa Calm   1.6 km/h 82 % 0 mm
21:34 9.8 °C 6.9 °C 1020.2 hPa Calm   1.6 km/h 82 % 0 mm
21:35 9.8 °C 6.9 °C 1020.2 hPa Calm   1.6 km/h 82 % 0 mm
21:38 9.7 °C 6.8 °C 1020.2 hPa Calm   1.6 km/h 82 % 0 mm
21:39 9.6 °C 6.7 °C 1020.2 hPa Calm   1.6 km/h 82 % 0 mm
21:40 9.6 °C 6.7 °C 1020.2 hPa Calm   1.6 km/h 82 % 0 mm
21:41 9.6 °C 6.7 °C 1020.2 hPa Calm   1.6 km/h 82 % 0 mm
21:42 9.5 °C 6.6 °C 1020.2 hPa Calm   1.6 km/h 82 % 0 mm
21:44 9.5 °C 6.6 °C 1020.2 hPa Calm   1.6 km/h 82 % 0 mm
21:45 9.4 °C 6.7 °C 1020.2 hPa Calm   1.6 km/h 83 % 0 mm
21:47 9.4 °C 6.7 °C 1020.2 hPa Calm   1.6 km/h 83 % 0 mm
21:48 9.4 °C 6.7 °C 1020.5 hPa Calm   1.6 km/h 83 % 0 mm
21:49 9.3 °C 6.6 °C 1020.5 hPa Calm   1.6 km/h 83 % 0 mm
21:50 9.3 °C 6.6 °C 1020.5 hPa Calm   1.6 km/h 83 % 0 mm
21:52 9.3 °C 6.6 °C 1020.5 hPa Calm   1.6 km/h 83 % 0 mm
21:53 9.3 °C 6.6 °C 1020.5 hPa Calm   1.6 km/h 83 % 0 mm
21:55 9.3 °C 6.7 °C 1020.2 hPa Calm   1.6 km/h 84 % 0 mm
21:56 9.2 °C 6.6 °C 1020.2 hPa Calm   1.6 km/h 84 % 0 mm
21:57 9.2 °C 6.6 °C 1020.5 hPa Calm   1.6 km/h 84 % 0 mm
21:58 9.2 °C 6.6 °C 1020.5 hPa Calm   1.6 km/h 84 % 0 mm
21:59 9.2 °C 6.6 °C 1020.2 hPa Calm   1.6 km/h 84 % 0 mm
22:00 9.2 °C 6.6 °C 1020.2 hPa Calm   1.6 km/h 84 % 0 mm
22:02 9.2 °C 6.8 °C 1020.5 hPa Calm   1.6 km/h 85 % 0 mm
22:03 9.2 °C 6.8 °C 1020.5 hPa NE 1.6 km/h 1.6 km/h 85 % 0 mm
22:07 9.3 °C 6.9 °C 1020.5 hPa Calm   3.2 km/h 85 % 0 mm
22:08 9.3 °C 6.9 °C 1020.5 hPa Calm   3.2 km/h 85 % 0 mm
22:09 9.3 °C 6.9 °C 1020.5 hPa Calm   3.2 km/h 85 % 0 mm
22:11 9.3 °C 7.1 °C 1020.2 hPa Calm   3.2 km/h 86 % 0 mm
22:12 9.3 °C 7.1 °C 1020.2 hPa Calm   3.2 km/h 86 % 0 mm
22:13 9.3 °C 7.1 °C 1020.5 hPa Calm   3.2 km/h 86 % 0 mm
22:17 9.3 °C 7.1 °C 1020.5 hPa Calm   3.2 km/h 86 % 0 mm
22:18 9.3 °C 7.1 °C 1020.5 hPa Calm   3.2 km/h 86 % 0 mm
22:19 9.3 °C 7.1 °C 1020.5 hPa Calm   3.2 km/h 86 % 0 mm
22:20 9.3 °C 7.1 °C 1020.5 hPa Calm   3.2 km/h 86 % 0 mm
22:21 9.3 °C 7.1 °C 1020.5 hPa Calm   1.6 km/h 86 % 0 mm
22:23 9.2 °C 7 °C 1020.5 hPa Calm   1.6 km/h 86 % 0 mm
22:24 9.2 °C 7 °C 1020.5 hPa Calm   1.6 km/h 86 % 0 mm
22:25 9.2 °C 7 °C 1020.5 hPa Calm   1.6 km/h 86 % 0 mm
22:26 9.2 °C 7 °C 1020.5 hPa Calm   1.6 km/h 86 % 0 mm
22:27 9.2 °C 7 °C 1020.5 hPa Calm   1.6 km/h 86 % 0 mm
22:30 9.1 °C 6.9 °C 1020.5 hPa Calm   1.6 km/h 86 % 0 mm
22:31 9 °C 6.8 °C 1020.5 hPa Calm   1.6 km/h 86 % 0 mm
22:32 8.9 °C 6.7 °C 1020.5 hPa Calm   1.6 km/h 86 % 0 mm
22:35 8.8 °C 6.6 °C 1020.5 hPa Calm     86 % 0 mm
22:36 8.7 °C 6.5 °C 1020.5 hPa Calm     86 % 0 mm
22:37 8.7 °C 6.5 °C 1020.5 hPa Calm     86 % 0 mm
22:38 8.7 °C 6.7 °C 1020.5 hPa Calm     87 % 0 mm
22:39 8.6 °C 6.6 °C 1020.5 hPa Calm     87 % 0 mm
22:40 8.6 °C 6.6 °C 1020.5 hPa Calm     87 % 0 mm
22:43 8.4 °C 6.4 °C 1020.5 hPa Calm     87 % 0 mm
22:47 8.2 °C 6.2 °C 1020.5 hPa Calm     87 % 0 mm
22:48 8.1 °C 6.1 °C 1020.5 hPa Calm     87 % 0 mm
22:49 8.1 °C 6.1 °C 1020.5 hPa Calm     87 % 0 mm
22:50 8 °C 6 °C 1020.5 hPa Calm     87 % 0 mm
22:51 7.8 °C 5.8 °C 1020.5 hPa Calm     87 % 0 mm
22:52 7.8 °C 5.8 °C 1020.5 hPa Calm     87 % 0 mm
22:54 7.7 °C 5.7 °C 1020.5 hPa Calm     87 % 0 mm
22:55 7.7 °C 5.7 °C 1020.5 hPa Calm     87 % 0 mm
22:56 7.6 °C 5.7 °C 1020.5 hPa Calm     88 % 0 mm
22:57 7.5 °C 5.6 °C 1020.5 hPa Calm     88 % 0 mm
22:58 7.5 °C 5.6 °C 1020.5 hPa Calm     88 % 0 mm
23:00 7.4 °C 5.5 °C 1020.5 hPa Calm     88 % 0 mm
23:01 7.3 °C 5.4 °C 1020.5 hPa Calm     88 % 0 mm
23:02 7.3 °C 5.4 °C 1020.5 hPa Calm     88 % 0 mm
23:04 7.2 °C 5.3 °C 1020.5 hPa Calm     88 % 0 mm
23:06 7.1 °C 5.2 °C 1020.5 hPa Calm     88 % 0 mm
23:07 7.1 °C 5.4 °C 1020.5 hPa Calm     89 % 0 mm
23:09 7 °C 5.3 °C 1020.5 hPa Calm     89 % 0 mm
23:10 7.1 °C 5.4 °C 1020.5 hPa Calm     89 % 0 mm
23:11 7.1 °C 5.4 °C 1020.5 hPa Calm     89 % 0 mm
23:12 7.1 °C 5.4 °C 1020.5 hPa Calm     89 % 0 mm
23:13 7.1 °C 5.4 °C 1020.5 hPa Calm     89 % 0 mm
23:14 7.1 °C 5.6 °C 1020.5 hPa Calm     90 % 0 mm
23:18 7 °C 5.5 °C 1020.5 hPa Calm     90 % 0 mm
23:19 7 °C 5.5 °C 1020.5 hPa Calm     90 % 0 mm
23:21 6.9 °C 5.5 °C 1020.5 hPa Calm     91 % 0 mm
23:22 6.9 °C 5.5 °C 1020.5 hPa Calm     91 % 0 mm
23:23 6.9 °C 5.5 °C 1020.5 hPa Calm     91 % 0 mm
23:24 6.9 °C 5.5 °C 1020.5 hPa Calm     91 % 0 mm
23:26 6.9 °C 5.5 °C 1020.5 hPa Calm     91 % 0 mm
23:27 6.9 °C 5.5 °C 1020.5 hPa Calm     91 % 0 mm
23:29 6.9 °C 5.5 °C 1020.5 hPa Calm     91 % 0 mm
23:30 6.9 °C 5.5 °C 1020.5 hPa Calm     91 % 0 mm
23:31 6.9 °C 5.5 °C 1020.5 hPa Calm     91 % 0 mm
23:32 6.8 °C 5.4 °C 1020.5 hPa Calm     91 % 0 mm
23:33 6.8 °C 5.6 °C 1020.5 hPa Calm     92 % 0 mm
23:34 6.8 °C 5.6 °C 1020.5 hPa Calm     92 % 0 mm
23:35 6.8 °C 5.6 °C 1020.5 hPa Calm     92 % 0 mm
23:36 6.8 °C 5.6 °C 1020.5 hPa Calm     92 % 0 mm
23:37 6.7 °C 5.5 °C 1020.5 hPa Calm     92 % 0 mm
23:38 6.7 °C 5.5 °C 1020.5 hPa Calm     92 % 0 mm
23:40 6.6 °C 5.2 °C 1020.5 hPa Calm     91 % 0 mm
23:41 6.6 °C 5.2 °C 1020.5 hPa Calm     91 % 0 mm
23:43 6.6 °C 5.4 °C 1020.5 hPa Calm     92 % 0 mm
23:44 6.5 °C 5.3 °C 1020.5 hPa Calm     92 % 0 mm
23:46 6.6 °C 5.4 °C 1020.5 hPa Calm   1.6 km/h 92 % 0 mm
23:47 6.6 °C 5.4 °C 1020.5 hPa Calm   1.6 km/h 92 % 0 mm
23:48 6.6 °C 5.4 °C 1020.5 hPa Calm   1.6 km/h 92 % 0 mm
23:51 6.6 °C 5.5 °C 1020.5 hPa Calm   1.6 km/h 93 % 0 mm
23:52 6.6 °C 5.5 °C 1020.5 hPa Calm   1.6 km/h 93 % 0 mm
23:53 6.6 °C 5.5 °C 1020.5 hPa Calm   1.6 km/h 93 % 0 mm
23:54 6.6 °C 5.5 °C 1020.5 hPa Calm   1.6 km/h 93 % 0 mm
23:55 6.5 °C 5.4 °C 1020.5 hPa Calm   1.6 km/h 93 % 0 mm
23:57 6.5 °C 5.4 °C 1020.5 hPa Calm   1.6 km/h 93 % 0 mm
23:58 6.5 °C 5.4 °C 1020.5 hPa Calm   1.6 km/h 93 % 0 mm
23:59 6.4 °C 5.4 °C 1020.5 hPa Calm   1.6 km/h 93 % 0 mm
Spring, Texas: Villages of Bridgestone
Compliments of Weather Underground - 3.75 mb

Script developed by  Jim McMurry - jmcmurry@mwt.net Adapted for the template by  Wim van der Kuil - Leuven-Template.eu

You find our weather info also at:

UK Metoffice

WeatherCloud

Weather Underground

Mid-South Weather Network

AWEKAS

Citizen Weather Observer Program (CWOP)

HAMweather, WeatherForYou, PWS Weather

Equipment we use:

Weather-station
Davis Vantage Vue

Weather-program
Meteohub

Weather-server
Debian 7.9 x86 (Guest)

Provider
DreamHost

Davis Vantage Vue

Meteohub

Debian 7.9 x86 (Guest)

DreamHost